Time,TemperatureF,DewpointF,PressureIn,WindDirection,WindDirectionDegrees,WindSpeedMPH,WindSpeedGustMPH,Humidity,HourlyPrecipIn,Conditions,Clouds,dailyrainin,SoftwareType,DateUTC
2013-11-03 00:01:00,74.6,69.0,29.95,WNW,292,4.4,10.0,82,0.00,,,0.00,Rainwise IP-100,2013-11-03 04:01:00,
2013-11-03 00:07:00,74.3,68.0,29.95,North,360,1.6,8.0,81,0.00,,,0.00,Rainwise IP-100,2013-11-03 04:07:00,
2013-11-03 00:12:00,74.2,68.0,29.95,NNW,337,3.0,8.0,80,0.00,,,0.00,Rainwise IP-100,2013-11-03 04:12:00,
2013-11-03 00:17:00,74.1,67.0,29.94,NW,315,4.0,6.0,80,0.00,,,0.00,Rainwise IP-100,2013-11-03 04:17:00,
2013-11-03 00:22:00,73.8,66.0,29.94,NNW,337,4.0,7.0,79,0.00,,,0.00,Rainwise IP-100,2013-11-03 04:22:00,
2013-11-03 00:27:00,73.7,66.0,29.94,NNW,337,0.0,10.0,78,0.00,,,0.00,Rainwise IP-100,2013-11-03 04:27:00,
2013-11-03 00:32:00,73.6,66.0,29.95,WNW,292,4.9,7.0,78,0.00,,,0.00,Rainwise IP-100,2013-11-03 04:32:00,
2013-11-03 00:37:00,73.5,66.0,29.95,WNW,292,4.0,11.0,76,0.00,,,0.00,Rainwise IP-100,2013-11-03 04:37:00,
2013-11-03 00:43:00,73.4,65.0,29.95,WSW,247,0.0,10.0,75,0.00,,,0.00,Rainwise IP-100,2013-11-03 04:43:00,
2013-11-03 00:48:00,73.3,64.0,29.96,WNW,292,3.7,11.0,74,0.00,,,0.00,Rainwise IP-100,2013-11-03 04:48:00,
2013-11-03 00:53:00,73.0,64.0,29.95,NNW,337,7.0,14.0,73,0.00,,,0.00,Rainwise IP-100,2013-11-03 04:53:00,
2013-11-03 00:58:00,72.5,63.0,29.95,West,270,6.3,13.0,72,0.00,,,0.00,Rainwise IP-100,2013-11-03 04:58:00,
2013-11-03 01:03:00,72.1,62.0,29.96,NNW,337,4.9,11.0,71,0.00,,,0.00,Rainwise IP-100,2013-11-03 05:03:00,
2013-11-03 01:08:00,71.9,62.0,29.96,WNW,292,5.6,11.0,71,0.00,,,0.00,Rainwise IP-100,2013-11-03 05:08:00,
2013-11-03 01:13:00,71.6,61.0,29.95,NNW,337,4.2,11.0,71,0.00,,,0.00,Rainwise IP-100,2013-11-03 05:13:00,
2013-11-03 01:18:00,71.5,62.0,29.96,North,360,6.3,12.0,72,0.00,,,0.00,Rainwise IP-100,2013-11-03 05:18:00,
2013-11-03 01:24:00,71.3,62.0,29.95,NNW,337,6.1,11.0,73,0.00,,,0.00,Rainwise IP-100,2013-11-03 05:24:00,
2013-11-03 01:29:00,71.0,61.0,29.95,North,360,6.3,11.0,73,0.00,,,0.00,Rainwise IP-100,2013-11-03 05:29:00,
2013-11-03 01:34:00,70.9,61.0,29.96,NNW,337,5.4,9.0,73,0.00,,,0.00,Rainwise IP-100,2013-11-03 05:34:00,
2013-11-03 01:39:00,70.8,62.0,29.95,NW,315,5.4,15.0,74,0.00,,,0.00,Rainwise IP-100,2013-11-03 05:39:00,
2013-11-03 01:44:00,70.8,62.0,29.95,WNW,292,6.1,8.0,74,0.00,,,0.00,Rainwise IP-100,2013-11-03 05:44:00,
2013-11-03 01:49:00,70.7,62.0,29.94,North,360,4.9,9.0,75,0.00,,,0.00,Rainwise IP-100,2013-11-03 05:49:00,
2013-11-03 01:54:00,70.7,62.0,29.95,North,360,4.4,10.0,75,0.00,,,0.00,Rainwise IP-100,2013-11-03 05:54:00,
2013-11-03 01:00:00,70.7,62.0,29.95,NNW,337,5.1,7.0,76,0.00,,,0.00,Rainwise IP-100,2013-11-03 06:00:00,
2013-11-03 02:00:00,70.6,63.0,29.94,NW,315,2.8,10.0,79,0.00,,,0.00,Rainwise IP-100,2013-11-03 07:00:00,
2013-11-03 02:05:00,70.6,63.0,29.94,NNW,337,7.9,11.0,79,0.00,,,0.00,Rainwise IP-100,2013-11-03 07:05:00,
2013-11-03 02:10:00,70.5,64.0,29.94,NNW,337,3.5,10.0,80,0.00,,,0.00,Rainwise IP-100,2013-11-03 07:10:00,
2013-11-03 02:15:00,70.4,64.0,29.94,NNW,337,7.2,13.0,80,0.00,,,0.00,Rainwise IP-100,2013-11-03 07:15:00,
2013-11-03 02:20:00,70.3,63.0,29.94,NNW,337,7.2,10.0,80,0.00,,,0.00,Rainwise IP-100,2013-11-03 07:20:00,
2013-11-03 02:26:00,70.3,64.0,29.94,NW,315,4.7,11.0,81,0.00,,,0.00,Rainwise IP-100,2013-11-03 07:26:00,
2013-11-03 02:31:00,70.2,64.0,29.95,NW,315,7.9,9.0,81,0.00,,,0.00,Rainwise IP-100,2013-11-03 07:31:00,
2013-11-03 02:36:00,70.2,64.0,29.94,WNW,292,4.2,10.0,81,0.00,,,0.00,Rainwise IP-100,2013-11-03 07:36:00,
2013-11-03 02:41:00,70.2,64.0,29.94,NW,315,4.7,7.0,81,0.00,,,0.00,Rainwise IP-100,2013-11-03 07:41:00,
2013-11-03 02:46:00,70.3,64.0,29.94,NW,315,3.0,8.0,81,0.00,,,0.00,Rainwise IP-100,2013-11-03 07:46:00,
2013-11-03 02:51:00,70.3,64.0,29.95,WNW,292,4.7,7.0,81,0.00,,,0.00,Rainwise IP-100,2013-11-03 07:51:00,
2013-11-03 02:56:00,70.4,64.0,29.94,WNW,292,4.7,8.0,81,0.00,,,0.00,Rainwise IP-100,2013-11-03 07:56:00,
2013-11-03 03:02:00,70.5,64.0,29.93,NNW,337,4.0,7.0,81,0.00,,,0.00,Rainwise IP-100,2013-11-03 08:02:00,
2013-11-03 03:07:00,70.5,64.0,29.94,WNW,292,2.1,10.0,80,0.00,,,0.00,Rainwise IP-100,2013-11-03 08:07:00,
2013-11-03 03:12:00,70.5,64.0,29.94,WNW,292,5.8,6.0,80,0.00,,,0.00,Rainwise IP-100,2013-11-03 08:12:00,
2013-11-03 03:17:00,70.6,64.0,29.94,NNE,22,3.3,7.0,80,0.00,,,0.00,Rainwise IP-100,2013-11-03 08:17:00,
2013-11-03 03:22:00,70.5,64.0,29.94,WNW,292,3.0,6.0,80,0.00,,,0.00,Rainwise IP-100,2013-11-03 08:22:00,
2013-11-03 03:27:00,70.6,63.0,29.94,NNW,337,5.1,7.0,79,0.00,,,0.00,Rainwise IP-100,2013-11-03 08:27:00,
2013-11-03 03:32:00,70.8,63.0,29.94,NNW,337,5.6,10.0,79,0.00,,,0.00,Rainwise IP-100,2013-11-03 08:32:00,
2013-11-03 03:37:00,71.0,64.0,29.94,NNW,337,8.4,9.0,79,0.00,,,0.00,Rainwise IP-100,2013-11-03 08:37:00,
2013-11-03 03:43:00,71.0,64.0,29.94,NNW,337,3.3,9.0,79,0.00,,,0.00,Rainwise IP-100,2013-11-03 08:43:00,
2013-11-03 03:48:00,70.9,64.0,29.94,WNW,292,6.1,8.0,79,0.00,,,0.00,Rainwise IP-100,2013-11-03 08:48:00,
2013-11-03 03:53:00,70.9,64.0,29.94,WNW,292,3.7,11.0,79,0.00,,,0.00,Rainwise IP-100,2013-11-03 08:53:00,
2013-11-03 03:58:00,71.0,64.0,29.94,WNW,292,4.7,8.0,79,0.00,,,0.00,Rainwise IP-100,2013-11-03 08:58:00,
2013-11-03 04:03:00,70.8,63.0,29.94,NW,315,2.1,8.0,79,0.00,,,0.00,Rainwise IP-100,2013-11-03 09:03:00,
2013-11-03 04:08:00,70.5,63.0,29.94,WNW,292,4.0,9.0,79,0.00,,,0.00,Rainwise IP-100,2013-11-03 09:08:00,
2013-11-03 04:13:00,70.3,63.0,29.94,NNW,337,5.6,7.0,80,0.00,,,0.00,Rainwise IP-100,2013-11-03 09:13:00,
2013-11-03 04:19:00,70.0,64.0,29.94,WNW,292,2.8,8.0,81,0.00,,,0.00,Rainwise IP-100,2013-11-03 09:19:00,
2013-11-03 04:24:00,69.9,64.0,29.94,WNW,292,2.6,7.0,81,0.00,,,0.00,Rainwise IP-100,2013-11-03 09:24:00,
2013-11-03 04:29:00,69.9,64.0,29.95,WNW,292,3.3,10.0,82,0.00,,,0.00,Rainwise IP-100,2013-11-03 09:29:00,
2013-11-03 04:34:00,69.8,64.0,29.95,NNW,337,3.7,10.0,82,0.00,,,0.00,Rainwise IP-100,2013-11-03 09:34:00,
2013-11-03 04:39:00,69.6,64.0,29.95,WNW,292,4.7,8.0,82,0.00,,,0.00,Rainwise IP-100,2013-11-03 09:39:00,
2013-11-03 04:44:00,69.5,64.0,29.95,NNW,337,8.4,10.0,83,0.00,,,0.00,Rainwise IP-100,2013-11-03 09:44:00,
2013-11-03 04:49:00,69.4,64.0,29.95,WNW,292,2.6,8.0,83,0.00,,,0.00,Rainwise IP-100,2013-11-03 09:49:00,
2013-11-03 04:54:00,69.2,64.0,29.95,NNW,337,5.8,13.0,83,0.00,,,0.00,Rainwise IP-100,2013-11-03 09:54:00,
2013-11-03 05:00:00,69.1,63.0,29.95,NNW,337,0.0,7.0,83,0.00,,,0.00,Rainwise IP-100,2013-11-03 10:00:00,
2013-11-03 05:05:00,69.1,63.0,29.94,WNW,292,6.1,12.0,83,0.00,,,0.00,Rainwise IP-100,2013-11-03 10:05:00,
2013-11-03 05:10:00,68.9,63.0,29.95,WNW,292,5.6,9.0,83,0.00,,,0.00,Rainwise IP-100,2013-11-03 10:10:00,
2013-11-03 05:15:00,68.9,63.0,29.95,WNW,292,5.6,11.0,83,0.00,,,0.00,Rainwise IP-100,2013-11-03 10:15:00,
2013-11-03 05:20:00,69.0,63.0,29.95,NNW,337,8.4,8.4,83,0.00,,,0.00,Rainwise IP-100,2013-11-03 10:20:00,
2013-11-03 05:25:00,69.1,63.0,29.95,NW,315,4.7,9.0,83,0.00,,,0.00,Rainwise IP-100,2013-11-03 10:25:00,
2013-11-03 05:30:00,69.1,63.0,29.95,West,270,6.3,10.0,82,0.00,,,0.00,Rainwise IP-100,2013-11-03 10:30:00,
2013-11-03 05:36:00,69.1,63.0,29.96,NW,315,3.0,7.0,82,0.00,,,0.00,Rainwise IP-100,2013-11-03 10:36:00,
2013-11-03 05:41:00,68.9,63.0,29.95,NNW,337,11.9,11.9,82,0.00,,,0.00,Rainwise IP-100,2013-11-03 10:41:00,
2013-11-03 05:46:00,68.9,63.0,29.96,WNW,292,5.1,12.0,82,0.00,,,0.00,Rainwise IP-100,2013-11-03 10:46:00,
2013-11-03 05:51:00,68.9,63.0,29.96,WNW,292,8.2,9.0,82,0.00,,,0.00,Rainwise IP-100,2013-11-03 10:51:00,
2013-11-03 05:56:00,68.9,63.0,29.97,NW,315,5.8,11.0,81,0.00,,,0.00,Rainwise IP-100,2013-11-03 10:56:00,
2013-11-03 06:01:00,68.9,63.0,29.97,WNW,292,6.5,10.0,81,0.00,,,0.00,Rainwise IP-100,2013-11-03 11:01:00,
2013-11-03 06:06:00,69.0,63.0,29.97,WNW,292,2.1,11.0,81,0.00,,,0.00,Rainwise IP-100,2013-11-03 11:06:00,
2013-11-03 06:11:00,68.9,62.0,29.98,WNW,292,7.2,8.0,80,0.00,,,0.00,Rainwise IP-100,2013-11-03 11:11:00,
2013-11-03 06:17:00,68.9,62.0,29.98,North,360,6.3,9.0,80,0.00,,,0.00,Rainwise IP-100,2013-11-03 11:17:00,
2013-11-03 06:22:00,68.9,62.0,29.98,NNW,337,4.4,10.0,79,0.00,,,0.00,Rainwise IP-100,2013-11-03 11:22:00,
2013-11-03 06:27:00,68.9,62.0,29.98,West,270,7.9,9.0,79,0.00,,,0.00,Rainwise IP-100,2013-11-03 11:27:00,
2013-11-03 06:32:00,68.9,62.0,29.98,NNW,337,6.5,10.0,79,0.00,,,0.00,Rainwise IP-100,2013-11-03 11:32:00,
2013-11-03 06:37:00,68.9,61.0,29.98,NNW,337,7.9,9.0,78,0.00,,,0.00,Rainwise IP-100,2013-11-03 11:37:00,
2013-11-03 06:42:00,68.9,61.0,29.98,NNW,337,3.3,10.0,78,0.00,,,0.00,Rainwise IP-100,2013-11-03 11:42:00,
2013-11-03 06:47:00,69.0,61.0,29.98,WNW,292,3.5,9.0,78,0.00,,,0.00,Rainwise IP-100,2013-11-03 11:47:00,
2013-11-03 06:53:00,69.0,61.0,29.98,NNW,337,5.8,8.0,78,0.00,,,0.00,Rainwise IP-100,2013-11-03 11:53:00,
2013-11-03 06:58:00,69.1,61.0,29.98,NNW,337,9.3,11.0,77,0.00,,,0.00,Rainwise IP-100,2013-11-03 11:58:00,
2013-11-03 07:03:00,69.4,61.0,29.99,NNW,337,6.1,9.0,77,0.00,,,0.00,Rainwise IP-100,2013-11-03 12:03:00,
2013-11-03 07:08:00,69.6,61.0,29.99,NNW,337,2.6,7.0,76,0.00,,,0.00,Rainwise IP-100,2013-11-03 12:08:00,
2013-11-03 07:13:00,69.7,61.0,29.98,NNW,337,8.4,8.4,76,0.00,,,0.00,Rainwise IP-100,2013-11-03 12:13:00,
2013-11-03 07:18:00,69.7,61.0,29.99,NNW,337,4.0,11.0,76,0.00,,,0.00,Rainwise IP-100,2013-11-03 12:18:00,
2013-11-03 07:23:00,69.8,61.0,29.99,NNW,337,7.9,11.0,75,0.00,,,0.00,Rainwise IP-100,2013-11-03 12:23:00,
2013-11-03 07:28:00,69.9,62.0,30.00,WNW,292,3.7,9.0,75,0.00,,,0.00,Rainwise IP-100,2013-11-03 12:28:00,
2013-11-03 07:34:00,70.0,62.0,30.00,WNW,292,5.4,7.0,75,0.00,,,0.00,Rainwise IP-100,2013-11-03 12:34:00,
2013-11-03 07:39:00,70.3,61.0,29.99,NW,315,3.0,8.0,74,0.00,,,0.00,Rainwise IP-100,2013-11-03 12:39:00,
2013-11-03 07:44:00,70.6,62.0,29.99,NNW,337,6.5,11.0,74,0.00,,,0.00,Rainwise IP-100,2013-11-03 12:44:00,
2013-11-03 07:49:00,70.5,61.0,29.99,WNW,292,4.7,11.0,73,0.00,,,0.00,Rainwise IP-100,2013-11-03 12:49:00,
2013-11-03 07:52:00,70.5,61.0,30.00,WNW,292,6.5,10.0,73,0.00,,,0.00,Rainwise IP-100,2013-11-03 12:52:00,
2013-11-03 07:53:00,70.5,61.0,30.00,NW,315,3.3,9.0,73,0.00,,,0.00,Rainwise IP-100,2013-11-03 12:53:00,
2013-11-03 07:58:00,70.8,61.0,29.99,NNW,337,4.4,12.0,73,0.00,,,0.00,Rainwise IP-100,2013-11-03 12:58:00,
2013-11-03 08:03:00,71.0,61.0,29.99,NNW,337,7.9,8.0,72,0.00,,,0.00,Rainwise IP-100,2013-11-03 13:03:00,
2013-11-03 08:08:00,71.3,61.0,30.00,NW,315,3.7,14.0,71,0.00,,,0.00,Rainwise IP-100,2013-11-03 13:08:00,
2013-11-03 08:13:00,71.7,61.0,29.99,NNW,337,7.9,10.0,71,0.00,,,0.00,Rainwise IP-100,2013-11-03 13:13:00,
2013-11-03 08:18:00,71.8,61.0,29.99,WNW,292,7.7,12.0,70,0.00,,,0.00,Rainwise IP-100,2013-11-03 13:18:00,
2013-11-03 08:23:00,72.2,62.0,30.00,NNW,337,6.3,12.0,70,0.00,,,0.00,Rainwise IP-100,2013-11-03 13:23:00,
2013-11-03 08:29:00,72.5,62.0,30.00,NNW,337,6.5,11.0,70,0.00,,,0.00,Rainwise IP-100,2013-11-03 13:29:00,
2013-11-03 08:34:00,72.7,62.0,30.01,NNW,337,7.5,13.0,69,0.00,,,0.00,Rainwise IP-100,2013-11-03 13:34:00,
2013-11-03 08:39:00,72.8,62.0,30.01,NNW,337,11.7,12.0,69,0.00,,,0.00,Rainwise IP-100,2013-11-03 13:39:00,
2013-11-03 08:44:00,72.9,62.0,30.01,NNW,337,9.8,14.0,68,0.00,,,0.00,Rainwise IP-100,2013-11-03 13:44:00,
2013-11-03 08:49:00,73.2,62.0,30.01,NW,315,7.2,12.0,68,0.00,,,0.00,Rainwise IP-100,2013-11-03 13:49:00,
2013-11-03 08:54:00,73.5,62.0,30.01,NNW,337,6.5,11.0,68,0.00,,,0.00,Rainwise IP-100,2013-11-03 13:54:00,
2013-11-03 08:59:00,74.0,62.0,30.01,NNW,337,9.8,10.0,67,0.00,,,0.00,Rainwise IP-100,2013-11-03 13:59:00,
2013-11-03 09:05:00,74.1,62.0,30.01,NNW,337,5.4,15.0,67,0.00,,,0.00,Rainwise IP-100,2013-11-03 14:05:00,
2013-11-03 09:10:00,74.1,62.0,30.01,NW,315,9.6,14.0,66,0.00,,,0.00,Rainwise IP-100,2013-11-03 14:10:00,
2013-11-03 09:15:00,74.1,62.0,30.01,NNW,337,8.6,14.0,66,0.00,,,0.00,Rainwise IP-100,2013-11-03 14:15:00,
2013-11-03 09:20:00,74.3,62.0,30.01,NNW,337,15.6,15.6,66,0.00,,,0.00,Rainwise IP-100,2013-11-03 14:20:00,
2013-11-03 09:25:00,74.5,62.0,30.02,North,360,10.5,15.0,66,0.00,,,0.00,Rainwise IP-100,2013-11-03 14:25:00,
2013-11-03 09:30:00,74.9,63.0,30.02,NNE,22,6.5,14.0,66,0.00,,,0.00,Rainwise IP-100,2013-11-03 14:30:00,
2013-11-03 09:35:00,75.4,63.0,30.02,NNW,337,1.9,10.0,65,0.00,,,0.00,Rainwise IP-100,2013-11-03 14:35:00,
2013-11-03 09:40:00,75.7,62.0,30.02,NNW,337,6.8,13.0,64,0.00,,,0.00,Rainwise IP-100,2013-11-03 14:40:00,
2013-11-03 09:46:00,75.9,63.0,30.03,NNW,337,4.9,14.0,64,0.00,,,0.00,Rainwise IP-100,2013-11-03 14:46:00,
2013-11-03 09:51:00,76.0,62.0,30.03,NNW,337,12.8,17.0,63,0.00,,,0.00,Rainwise IP-100,2013-11-03 14:51:00,
2013-11-03 09:56:00,76.3,62.0,30.03,North,360,10.7,15.0,63,0.00,,,0.00,Rainwise IP-100,2013-11-03 14:56:00,
2013-11-03 10:01:00,76.2,62.0,30.03,NNW,337,11.7,16.0,63,0.00,,,0.00,Rainwise IP-100,2013-11-03 15:01:00,
2013-11-03 10:06:00,76.2,62.0,30.03,NNW,337,5.8,16.0,63,0.00,,,0.00,Rainwise IP-100,2013-11-03 15:06:00,
2013-11-03 10:11:00,76.3,62.0,30.03,NNW,337,5.4,11.0,63,0.00,,,0.00,Rainwise IP-100,2013-11-03 15:11:00,
2013-11-03 10:16:00,77.0,63.0,30.03,NNE,22,10.3,15.0,63,0.00,,,0.00,Rainwise IP-100,2013-11-03 15:16:00,
2013-11-03 10:22:00,77.5,64.0,30.03,NNE,22,5.8,14.0,62,0.00,,,0.00,Rainwise IP-100,2013-11-03 15:22:00,
2013-11-03 10:27:00,77.8,64.0,30.02,NNE,22,7.0,13.0,62,0.00,,,0.00,Rainwise IP-100,2013-11-03 15:27:00,
2013-11-03 10:32:00,78.3,64.0,30.02,NNE,22,4.4,17.0,62,0.00,,,0.00,Rainwise IP-100,2013-11-03 15:32:00,
2013-11-03 10:37:00,78.8,64.0,30.02,NNW,337,8.6,12.0,62,0.00,,,0.00,Rainwise IP-100,2013-11-03 15:37:00,
2013-11-03 10:42:00,79.4,65.0,30.02,NNW,337,7.5,14.0,61,0.00,,,0.00,Rainwise IP-100,2013-11-03 15:42:00,
2013-11-03 10:47:00,79.7,65.0,30.02,NNE,22,19.6,20.0,61,0.00,,,0.00,Rainwise IP-100,2013-11-03 15:47:00,
2013-11-03 10:52:00,79.6,65.0,30.01,NNW,337,15.2,19.0,61,0.00,,,0.00,Rainwise IP-100,2013-11-03 15:52:00,
2013-11-03 10:57:00,79.8,64.0,30.02,NNE,22,10.5,17.0,60,0.00,,,0.00,Rainwise IP-100,2013-11-03 15:57:00,
2013-11-03 11:03:00,80.3,64.0,30.01,NE,45,11.9,20.0,59,0.00,,,0.00,Rainwise IP-100,2013-11-03 16:03:00,
2013-11-03 11:08:00,80.1,64.0,30.01,North,360,13.3,22.0,59,0.00,,,0.00,Rainwise IP-100,2013-11-03 16:08:00,
2013-11-03 11:13:00,79.7,64.0,30.02,NNW,337,11.0,20.0,59,0.00,,,0.00,Rainwise IP-100,2013-11-03 16:13:00,
2013-11-03 11:18:00,80.2,64.0,30.01,NNE,22,12.8,16.0,59,0.00,,,0.00,Rainwise IP-100,2013-11-03 16:18:00,
2013-11-03 11:23:00,80.8,65.0,30.01,ENE,67,11.2,18.0,59,0.00,,,0.00,Rainwise IP-100,2013-11-03 16:23:00,
2013-11-03 11:28:00,80.5,64.0,30.01,NE,45,6.1,23.0,58,0.00,,,0.00,Rainwise IP-100,2013-11-03 16:28:00,
2013-11-03 11:33:00,80.4,63.0,30.01,NNW,337,13.3,18.0,56,0.00,,,0.00,Rainwise IP-100,2013-11-03 16:33:00,
2013-11-03 11:39:00,80.8,63.0,30.01,North,360,9.6,17.0,55,0.00,,,0.00,Rainwise IP-100,2013-11-03 16:39:00,
2013-11-03 11:44:00,81.1,63.0,30.01,North,360,13.3,15.0,55,0.00,,,0.00,Rainwise IP-100,2013-11-03 16:44:00,
2013-11-03 11:49:00,81.2,63.0,30.01,North,360,14.2,18.0,54,0.00,,,0.00,Rainwise IP-100,2013-11-03 16:49:00,
2013-11-03 11:54:00,81.2,63.0,30.01,NNW,337,12.1,19.0,54,0.00,,,0.00,Rainwise IP-100,2013-11-03 16:54:00,
2013-11-03 11:59:00,81.3,63.0,30.00,NNE,22,9.3,17.0,54,0.00,,,0.00,Rainwise IP-100,2013-11-03 16:59:00,
2013-11-03 12:04:00,81.3,63.0,30.01,NE,45,10.0,18.0,54,0.00,,,0.00,Rainwise IP-100,2013-11-03 17:04:00,
2013-11-03 12:09:00,81.3,63.0,30.01,NNE,22,11.9,18.0,55,0.00,,,0.00,Rainwise IP-100,2013-11-03 17:09:00,
2013-11-03 12:14:00,81.4,63.0,30.01,NE,45,12.6,17.0,55,0.00,,,0.00,Rainwise IP-100,2013-11-03 17:14:00,
2013-11-03 12:20:00,81.3,63.0,30.00,North,360,6.1,20.0,55,0.00,,,0.00,Rainwise IP-100,2013-11-03 17:20:00,
2013-11-03 12:25:00,81.0,63.0,30.00,NE,45,12.4,24.0,55,0.00,,,0.00,Rainwise IP-100,2013-11-03 17:25:00,
2013-11-03 12:30:00,81.0,63.0,30.00,NNE,22,16.8,22.0,55,0.00,,,0.00,Rainwise IP-100,2013-11-03 17:30:00,
2013-11-03 12:35:00,80.8,63.0,29.99,NNW,337,10.5,24.0,56,0.00,,,0.00,Rainwise IP-100,2013-11-03 17:35:00,
2013-11-03 12:40:00,80.0,63.0,29.98,North,360,11.4,22.0,57,0.00,,,0.00,Rainwise IP-100,2013-11-03 17:40:00,
2013-11-03 12:45:00,79.3,64.0,29.99,NNE,22,13.5,22.0,59,0.00,,,0.00,Rainwise IP-100,2013-11-03 17:45:00,
2013-11-03 12:50:00,79.1,64.0,29.99,NNE,22,4.0,21.0,60,0.00,,,0.00,Rainwise IP-100,2013-11-03 17:50:00,
2013-11-03 12:56:00,79.0,63.0,29.99,NNE,22,13.3,19.0,59,0.00,,,0.00,Rainwise IP-100,2013-11-03 17:56:00,
2013-11-03 13:01:00,78.9,64.0,29.99,NNE,22,10.3,19.0,60,0.00,,,0.00,Rainwise IP-100,2013-11-03 18:01:00,
2013-11-03 13:06:00,78.8,63.0,29.99,NNW,337,13.1,18.0,60,0.00,,,0.00,Rainwise IP-100,2013-11-03 18:06:00,
2013-11-03 13:11:00,78.8,63.0,29.98,NNE,22,11.4,18.0,59,0.00,,,0.00,Rainwise IP-100,2013-11-03 18:11:00,
2013-11-03 13:16:00,78.8,63.0,29.98,NNE,22,11.7,18.0,59,0.00,,,0.00,Rainwise IP-100,2013-11-03 18:16:00,
2013-11-03 13:21:00,78.7,62.0,29.99,NNE,22,8.9,20.0,58,0.00,,,0.00,Rainwise IP-100,2013-11-03 18:21:00,
2013-11-03 13:26:00,78.7,62.0,29.98,NNE,22,18.0,18.0,57,0.00,,,0.00,Rainwise IP-100,2013-11-03 18:26:00,
2013-11-03 13:31:00,78.8,62.0,29.98,NNE,22,11.7,21.0,57,0.00,,,0.00,Rainwise IP-100,2013-11-03 18:31:00,
2013-11-03 13:37:00,78.9,63.0,29.98,NNE,22,16.8,20.0,58,0.00,,,0.00,Rainwise IP-100,2013-11-03 18:37:00,
2013-11-03 13:42:00,79.0,62.0,29.98,ENE,67,6.1,17.0,57,0.00,,,0.00,Rainwise IP-100,2013-11-03 18:42:00,
2013-11-03 13:47:00,79.3,63.0,29.98,NNW,337,8.6,15.0,58,0.00,,,0.00,Rainwise IP-100,2013-11-03 18:47:00,
2013-11-03 13:52:00,79.4,63.0,29.98,NNW,337,9.1,18.0,58,0.00,,,0.00,Rainwise IP-100,2013-11-03 18:52:00,
2013-11-03 13:57:00,79.3,63.0,29.98,NNE,22,12.6,18.0,58,0.00,,,0.00,Rainwise IP-100,2013-11-03 18:57:00,
2013-11-03 14:02:00,79.2,63.0,29.97,NNE,22,12.8,15.0,58,0.00,,,0.00,Rainwise IP-100,2013-11-03 19:02:00,
2013-11-03 14:07:00,79.0,63.0,29.97,NNE,22,12.8,20.0,58,0.00,,,0.00,Rainwise IP-100,2013-11-03 19:07:00,
2013-11-03 14:13:00,78.7,62.0,29.98,NNE,22,13.3,20.0,58,0.00,,,0.00,Rainwise IP-100,2013-11-03 19:13:00,
2013-11-03 14:18:00,78.6,63.0,29.98,NE,45,7.5,21.0,59,0.00,,,0.00,Rainwise IP-100,2013-11-03 19:18:00,
2013-11-03 14:23:00,78.6,63.0,29.98,NNE,22,6.1,21.0,59,0.00,,,0.00,Rainwise IP-100,2013-11-03 19:23:00,
2013-11-03 14:28:00,78.5,62.0,29.98,ENE,67,9.6,18.0,58,0.00,,,0.00,Rainwise IP-100,2013-11-03 19:28:00,
2013-11-03 14:33:00,78.4,63.0,29.97,NNE,22,11.7,17.0,59,0.00,,,0.00,Rainwise IP-100,2013-11-03 19:33:00,
2013-11-03 14:38:00,78.4,63.0,29.98,North,360,9.8,16.0,59,0.00,,,0.00,Rainwise IP-100,2013-11-03 19:38:00,
2013-11-03 14:43:00,78.3,63.0,29.98,NNE,22,6.8,19.0,60,0.00,,,0.00,Rainwise IP-100,2013-11-03 19:43:00,
2013-11-03 14:48:00,78.1,63.0,29.97,NNW,337,9.8,22.0,61,0.00,,,0.00,Rainwise IP-100,2013-11-03 19:48:00,
2013-11-03 14:54:00,78.0,63.0,29.97,NNW,337,7.2,17.0,61,0.00,,,0.00,Rainwise IP-100,2013-11-03 19:54:00,
2013-11-03 14:59:00,78.0,63.0,29.98,ENE,67,12.8,15.0,60,0.00,,,0.00,Rainwise IP-100,2013-11-03 19:59:00,
2013-11-03 15:04:00,78.1,63.0,29.98,NNW,337,8.9,15.0,60,0.00,,,0.00,Rainwise IP-100,2013-11-03 20:04:00,
2013-11-03 15:09:00,78.2,64.0,29.98,NNW,337,8.4,16.0,61,0.00,,,0.00,Rainwise IP-100,2013-11-03 20:09:00,
2013-11-03 15:14:00,78.3,63.0,29.97,ENE,67,8.4,18.0,60,0.00,,,0.00,Rainwise IP-100,2013-11-03 20:14:00,
2013-11-03 15:19:00,78.4,63.0,29.97,NNE,22,12.1,18.0,60,0.00,,,0.00,Rainwise IP-100,2013-11-03 20:19:00,
2013-11-03 15:24:00,78.5,63.0,29.97,NE,45,18.4,18.4,59,0.00,,,0.00,Rainwise IP-100,2013-11-03 20:24:00,
2013-11-03 15:30:00,78.5,63.0,29.98,NNE,22,15.4,21.0,59,0.00,,,0.00,Rainwise IP-100,2013-11-03 20:30:00,
2013-11-03 15:35:00,78.5,63.0,29.97,North,360,9.8,21.0,59,0.00,,,0.00,Rainwise IP-100,2013-11-03 20:35:00,
2013-11-03 15:40:00,78.5,62.0,29.97,NNE,22,6.5,18.0,58,0.00,,,0.00,Rainwise IP-100,2013-11-03 20:40:00,
2013-11-03 15:45:00,78.7,62.0,29.97,NNW,337,14.9,17.0,58,0.00,,,0.00,Rainwise IP-100,2013-11-03 20:45:00,
2013-11-03 15:50:00,78.6,63.0,29.97,North,360,6.8,20.0,59,0.00,,,0.00,Rainwise IP-100,2013-11-03 20:50:00,
2013-11-03 15:55:00,78.7,63.0,29.98,NNW,337,10.5,19.0,59,0.00,,,0.00,Rainwise IP-100,2013-11-03 20:55:00,
2013-11-03 16:00:00,78.7,63.0,29.97,NE,45,14.5,20.0,59,0.00,,,0.00,Rainwise IP-100,2013-11-03 21:00:00,
2013-11-03 16:05:00,78.6,63.0,29.98,NNE,22,19.6,19.6,59,0.00,,,0.00,Rainwise IP-100,2013-11-03 21:05:00,
2013-11-03 16:11:00,78.5,63.0,29.98,NNE,22,11.9,22.0,59,0.00,,,0.00,Rainwise IP-100,2013-11-03 21:11:00,
2013-11-03 16:16:00,78.4,62.0,29.98,NNW,337,11.2,17.0,58,0.00,,,0.00,Rainwise IP-100,2013-11-03 21:16:00,
2013-11-03 16:21:00,78.4,62.0,29.98,NNE,22,12.4,20.0,58,0.00,,,0.00,Rainwise IP-100,2013-11-03 21:21:00,
2013-11-03 16:26:00,78.4,63.0,29.98,NNE,22,12.4,16.0,59,0.00,,,0.00,Rainwise IP-100,2013-11-03 21:26:00,
2013-11-03 16:31:00,78.4,63.0,29.98,NE,45,4.4,16.0,59,0.00,,,0.00,Rainwise IP-100,2013-11-03 21:31:00,
2013-11-03 16:36:00,78.2,63.0,29.98,North,360,9.8,14.0,59,0.00,,,0.00,Rainwise IP-100,2013-11-03 21:36:00,
2013-11-03 16:41:00,78.0,63.0,29.98,NNW,337,11.7,14.0,60,0.00,,,0.00,Rainwise IP-100,2013-11-03 21:41:00,
2013-11-03 16:47:00,78.1,62.0,29.98,NNE,22,6.5,15.0,59,0.00,,,0.00,Rainwise IP-100,2013-11-03 21:47:00,
2013-11-03 16:52:00,78.2,63.0,29.98,NNW,337,9.6,20.0,59,0.00,,,0.00,Rainwise IP-100,2013-11-03 21:52:00,
2013-11-03 16:57:00,78.1,62.0,29.98,North,360,9.1,17.0,59,0.00,,,0.00,Rainwise IP-100,2013-11-03 21:57:00,
2013-11-03 17:02:00,77.9,63.0,29.99,NNW,337,9.1,16.0,60,0.00,,,0.00,Rainwise IP-100,2013-11-03 22:02:00,
2013-11-03 17:07:00,77.9,62.0,29.99,NNW,337,17.0,18.0,59,0.00,,,0.00,Rainwise IP-100,2013-11-03 22:07:00,
2013-11-03 17:12:00,77.7,62.0,29.98,NNW,337,10.3,17.0,59,0.00,,,0.00,Rainwise IP-100,2013-11-03 22:12:00,
2013-11-03 17:17:00,77.5,62.0,29.99,NNW,337,7.7,17.0,59,0.00,,,0.00,Rainwise IP-100,2013-11-03 22:17:00,
2013-11-03 17:22:00,77.4,62.0,29.99,North,360,17.7,17.7,59,0.00,,,0.00,Rainwise IP-100,2013-11-03 22:22:00,
2013-11-03 17:28:00,77.4,62.0,29.99,NNE,22,10.7,16.0,59,0.00,,,0.00,Rainwise IP-100,2013-11-03 22:28:00,
2013-11-03 17:33:00,77.3,62.0,30.00,NNW,337,6.8,18.0,59,0.00,,,0.00,Rainwise IP-100,2013-11-03 22:33:00,
2013-11-03 17:38:00,77.3,62.0,29.99,NNW,337,4.9,17.0,59,0.00,,,0.00,Rainwise IP-100,2013-11-03 22:38:00,
2013-11-03 17:43:00,77.4,61.0,30.00,NNE,22,11.4,17.0,58,0.00,,,0.00,Rainwise IP-100,2013-11-03 22:43:00,
2013-11-03 17:48:00,77.7,61.0,30.00,NNW,337,7.9,14.0,57,0.00,,,0.00,Rainwise IP-100,2013-11-03 22:48:00,
2013-11-03 17:53:00,77.8,61.0,29.99,North,360,14.2,21.0,56,0.00,,,0.00,Rainwise IP-100,2013-11-03 22:53:00,
2013-11-03 17:58:00,77.8,60.0,30.00,North,360,11.0,18.0,55,0.00,,,0.00,Rainwise IP-100,2013-11-03 22:58:00,
2013-11-03 18:04:00,77.8,60.0,30.00,NNW,337,4.9,16.0,55,0.00,,,0.00,Rainwise IP-100,2013-11-03 23:04:00,
2013-11-03 18:09:00,77.8,61.0,30.00,North,360,8.6,14.0,56,0.00,,,0.00,Rainwise IP-100,2013-11-03 23:09:00,
2013-11-03 18:14:00,77.8,61.0,30.00,NNW,337,11.2,16.0,56,0.00,,,0.00,Rainwise IP-100,2013-11-03 23:14:00,
2013-11-03 18:19:00,77.8,61.0,30.01,NNE,22,5.8,15.0,56,0.00,,,0.00,Rainwise IP-100,2013-11-03 23:19:00,
2013-11-03 18:24:00,77.8,60.0,30.00,NNE,22,14.7,15.0,55,0.00,,,0.00,Rainwise IP-100,2013-11-03 23:24:00,
2013-11-03 18:29:00,77.8,60.0,30.01,North,360,12.4,17.0,55,0.00,,,0.00,Rainwise IP-100,2013-11-03 23:29:00,
2013-11-03 18:34:00,77.8,60.0,30.01,North,360,10.7,17.0,55,0.00,,,0.00,Rainwise IP-100,2013-11-03 23:34:00,
2013-11-03 18:39:00,77.8,61.0,30.01,NNE,22,15.4,17.0,56,0.00,,,0.00,Rainwise IP-100,2013-11-03 23:39:00,
2013-11-03 18:45:00,77.8,61.0,30.01,NNW,337,6.3,15.0,56,0.00,,,0.00,Rainwise IP-100,2013-11-03 23:45:00,
2013-11-03 18:50:00,77.8,60.0,30.02,NNW,337,10.0,20.0,55,0.00,,,0.00,Rainwise IP-100,2013-11-03 23:50:00,
2013-11-03 18:55:00,77.8,61.0,30.02,North,360,11.4,19.0,57,0.00,,,0.00,Rainwise IP-100,2013-11-03 23:55:00,
2013-11-03 19:00:00,77.5,63.0,30.02,NW,315,4.0,20.0,61,0.00,,,0.00,Rainwise IP-100,2013-11-04 00:00:00,
2013-11-03 19:05:00,77.2,63.0,30.02,NNE,22,11.9,23.0,61,0.00,,,0.00,Rainwise IP-100,2013-11-04 00:05:00,
2013-11-03 19:10:00,77.0,62.0,30.02,NNW,337,8.4,20.0,60,0.00,,,0.00,Rainwise IP-100,2013-11-04 00:10:00,
2013-11-03 19:15:00,77.1,62.0,30.02,North,360,13.8,22.0,60,0.00,,,0.00,Rainwise IP-100,2013-11-04 00:15:00,
2013-11-03 19:21:00,77.2,62.0,30.02,NNE,22,8.6,21.0,60,0.00,,,0.00,Rainwise IP-100,2013-11-04 00:21:00,
2013-11-03 19:26:00,77.3,63.0,30.03,NNE,22,11.7,20.0,61,0.00,,,0.00,Rainwise IP-100,2013-11-04 00:26:00,
2013-11-03 19:31:00,77.4,63.0,30.02,NNE,22,9.1,19.0,62,0.00,,,0.00,Rainwise IP-100,2013-11-04 00:31:00,
2013-11-03 19:36:00,77.4,64.0,30.02,North,360,14.0,21.0,63,0.00,,,0.00,Rainwise IP-100,2013-11-04 00:36:00,
2013-11-03 19:41:00,77.2,64.0,30.03,North,360,16.8,20.0,64,0.00,,,0.00,Rainwise IP-100,2013-11-04 00:41:00,
2013-11-03 19:46:00,77.1,64.0,30.04,NNE,22,15.6,18.0,64,0.00,,,0.00,Rainwise IP-100,2013-11-04 00:46:00,
2013-11-03 19:51:00,77.0,64.0,30.03,North,360,11.9,20.0,64,0.00,,,0.00,Rainwise IP-100,2013-11-04 00:51:00,
2013-11-03 19:56:00,77.0,64.0,30.02,NNE,22,19.4,19.4,65,0.00,,,0.00,Rainwise IP-100,2013-11-04 00:56:00,
2013-11-03 20:02:00,77.0,64.0,30.03,NNE,22,11.7,21.0,65,0.00,,,0.00,Rainwise IP-100,2013-11-04 01:02:00,
2013-11-03 20:07:00,77.0,65.0,30.03,NE,45,22.4,23.0,66,0.00,,,0.00,Rainwise IP-100,2013-11-04 01:07:00,
2013-11-03 20:12:00,77.0,64.0,30.02,NE,45,10.3,28.0,65,0.00,,,0.00,Rainwise IP-100,2013-11-04 01:12:00,
2013-11-03 20:17:00,77.1,65.0,30.04,NNW,337,12.4,22.0,66,0.00,,,0.00,Rainwise IP-100,2013-11-04 01:17:00,
2013-11-03 20:22:00,77.0,65.0,30.03,NNE,22,11.0,19.0,66,0.00,,,0.00,Rainwise IP-100,2013-11-04 01:22:00,
2013-11-03 20:27:00,77.0,64.0,30.04,NNE,22,7.2,18.0,65,0.00,,,0.00,Rainwise IP-100,2013-11-04 01:27:00,
2013-11-03 20:32:00,77.0,64.0,30.04,NNE,22,10.7,19.0,65,0.00,,,0.00,Rainwise IP-100,2013-11-04 01:32:00,
2013-11-03 20:38:00,77.0,64.0,30.04,NNE,22,5.8,20.0,65,0.00,,,0.00,Rainwise IP-100,2013-11-04 01:38:00,
2013-11-03 20:43:00,77.0,64.0,30.04,NNE,22,13.8,20.0,65,0.00,,,0.00,Rainwise IP-100,2013-11-04 01:43:00,
2013-11-03 20:48:00,77.0,64.0,30.04,NE,45,11.4,24.0,65,0.00,,,0.00,Rainwise IP-100,2013-11-04 01:48:00,
2013-11-03 20:53:00,77.1,64.0,30.05,NNE,22,7.7,22.0,64,0.00,,,0.00,Rainwise IP-100,2013-11-04 01:53:00,
2013-11-03 20:58:00,77.1,64.0,30.05,NE,45,10.7,18.0,64,0.00,,,0.00,Rainwise IP-100,2013-11-04 01:58:00,
2013-11-03 21:03:00,77.0,64.0,30.05,North,360,6.3,19.0,64,0.00,,,0.00,Rainwise IP-100,2013-11-04 02:03:00,
2013-11-03 21:08:00,77.0,64.0,30.05,North,360,10.0,19.0,64,0.00,,,0.00,Rainwise IP-100,2013-11-04 02:08:00,
2013-11-03 21:13:00,77.0,63.0,30.05,North,360,14.0,22.0,63,0.00,,,0.00,Rainwise IP-100,2013-11-04 02:13:00,
2013-11-03 21:19:00,77.0,63.0,30.06,NE,45,11.4,25.0,63,0.00,,,0.00,Rainwise IP-100,2013-11-04 02:19:00,
2013-11-03 21:24:00,77.0,63.0,30.05,ENE,67,16.3,24.0,63,0.00,,,0.00,Rainwise IP-100,2013-11-04 02:24:00,
2013-11-03 21:29:00,77.1,64.0,30.05,ENE,67,23.3,24.0,64,0.00,,,0.00,Rainwise IP-100,2013-11-04 02:29:00,
2013-11-03 21:34:00,77.2,64.0,30.06,NE,45,13.5,23.0,64,0.00,,,0.00,Rainwise IP-100,2013-11-04 02:34:00,
2013-11-03 21:39:00,77.1,63.0,30.05,ENE,67,18.9,21.0,63,0.00,,,0.00,Rainwise IP-100,2013-11-04 02:39:00,
2013-11-03 21:44:00,77.0,63.0,30.04,ENE,67,18.0,27.0,62,0.00,,,0.00,Rainwise IP-100,2013-11-04 02:44:00,
2013-11-03 21:49:00,77.0,63.0,30.06,ENE,67,17.7,23.0,62,0.00,,,0.00,Rainwise IP-100,2013-11-04 02:49:00,
2013-11-03 21:55:00,77.1,63.0,30.06,NNE,22,10.5,18.0,63,0.00,,,0.00,Rainwise IP-100,2013-11-04 02:55:00,
2013-11-03 22:00:00,77.0,64.0,30.06,NNE,22,19.1,23.0,64,0.00,,,0.00,Rainwise IP-100,2013-11-04 03:00:00,
2013-11-03 22:05:00,77.0,64.0,30.06,ENE,67,9.1,25.0,64,0.00,,,0.00,Rainwise IP-100,2013-11-04 03:05:00,
2013-11-03 22:10:00,77.0,63.0,30.06,ENE,67,16.1,26.0,63,0.00,,,0.00,Rainwise IP-100,2013-11-04 03:10:00,
2013-11-03 22:15:00,77.0,64.0,30.06,ENE,67,16.1,25.0,64,0.00,,,0.00,Rainwise IP-100,2013-11-04 03:15:00,
2013-11-03 22:20:00,76.9,64.0,30.06,NNE,22,15.6,24.0,64,0.00,,,0.00,Rainwise IP-100,2013-11-04 03:20:00,
2013-11-03 22:25:00,76.9,64.0,30.05,NE,45,21.5,25.0,64,0.00,,,0.00,Rainwise IP-100,2013-11-04 03:25:00,
2013-11-03 22:30:00,76.9,64.0,30.06,ENE,67,7.9,26.0,64,0.00,,,0.00,Rainwise IP-100,2013-11-04 03:30:00,
2013-11-03 22:36:00,76.8,64.0,30.06,ENE,67,17.3,20.0,64,0.00,,,0.00,Rainwise IP-100,2013-11-04 03:36:00,
2013-11-03 22:41:00,76.6,63.0,30.06,NE,45,10.7,25.0,64,0.00,,,0.00,Rainwise IP-100,2013-11-04 03:41:00,
2013-11-03 22:46:00,76.7,64.0,30.05,ENE,67,20.1,23.0,64,0.00,,,0.00,Rainwise IP-100,2013-11-04 03:46:00,
2013-11-03 22:51:00,76.9,63.0,30.06,NNE,22,10.5,24.0,63,0.00,,,0.00,Rainwise IP-100,2013-11-04 03:51:00,
2013-11-03 22:56:00,76.9,64.0,30.05,NNE,22,14.0,22.0,64,0.00,,,0.00,Rainwise IP-100,2013-11-04 03:56:00,
2013-11-03 23:01:00,77.0,63.0,30.06,NE,45,14.9,22.0,63,0.00,,,0.00,Rainwise IP-100,2013-11-04 04:01:00,
2013-11-03 23:06:00,77.0,63.0,30.05,ENE,67,15.9,29.0,63,0.00,,,0.00,Rainwise IP-100,2013-11-04 04:06:00,
2013-11-03 23:12:00,77.0,64.0,30.05,ENE,67,14.2,29.0,64,0.00,,,0.00,Rainwise IP-100,2013-11-04 04:12:00,
2013-11-03 23:17:00,76.9,64.0,30.04,NNE,22,15.6,25.0,64,0.00,,,0.00,Rainwise IP-100,2013-11-04 04:17:00,
2013-11-03 23:22:00,76.9,64.0,30.05,ENE,67,20.3,23.0,64,0.00,,,0.00,Rainwise IP-100,2013-11-04 04:22:00,
2013-11-03 23:27:00,76.9,64.0,30.05,ENE,67,12.8,26.0,65,0.00,,,0.00,Rainwise IP-100,2013-11-04 04:27:00,
2013-11-03 23:32:00,77.0,64.0,30.05,ENE,67,18.4,21.0,65,0.00,,,0.00,Rainwise IP-100,2013-11-04 04:32:00,
2013-11-03 23:37:00,76.9,64.0,30.04,ENE,67,18.9,22.0,65,0.00,,,0.00,Rainwise IP-100,2013-11-04 04:37:00,
2013-11-03 23:42:00,76.9,64.0,30.05,NE,45,12.1,22.0,65,0.00,,,0.00,Rainwise IP-100,2013-11-04 04:42:00,
2013-11-03 23:47:00,76.8,64.0,30.06,North,360,18.9,25.0,64,0.00,,,0.00,Rainwise IP-100,2013-11-04 04:47:00,
2013-11-03 23:53:00,76.8,63.0,30.05,NNE,22,18.0,25.0,63,0.00,,,0.00,Rainwise IP-100,2013-11-04 04:53:00,
2013-11-03 23:58:00,76.8,63.0,30.05,NNE,22,18.9,25.0,63,0.00,,,0.00,Rainwise IP-100,2013-11-04 04:58:00,